ホームズ彗星

17P/Holmes (2014)

English version
Home page
Updated on June 11, 2016

---------------------------------------------------------------------

・ プロフィール

・ 写真集

・ 軌道要素

Epoch 2014 Apr. 13.0 TT = JDT 2456760.5
T 2014 Mar. 27.51234 TT                                 MPC
q   2.0565871            (2000.0)            P               Q
n   0.14310674     Peri.   24.51414     +0.97593014     +0.12419539
a   3.6198952      Node   326.76481     -0.21060868     +0.75009238
e   0.4318656      Incl.   19.09161     +0.05660687     +0.64956672
P   6.89
From 3604 observations 1999 June 7-2013 Apr. 9, mean residual 0".6.
     Nongravitational parameters A1 = +0.26, A2 = +0.1488.

・ 星図

・ 光度変化

        m1 =   7.5 + 5 logΔ + 15   log r  [    ,-310]  (              〜2013年 5月21日)
        m1 =   0.0 + 5 logΔ + 35   log r  [-310, 305]  (2013年 5月21日〜2015年 1月26日)
        m1 = -27   + 5 logΔ + 80   log r  [ 305, 455]  (2015年 1月26日〜2015年 6月25日)
        m1 =   9.3 + 5 logΔ + 15.0 log r  [ 455,    ]  (2015年 6月25日〜              )

---------------------------------------------------------------------

軌道要素はM.P.E.C. 2013-H38に掲載されたものです。
星図はステラナビゲータ Ver.8 (アストロアーツ) で作成したものです。
光度グラフはComet for Windowsで作成したものです。

---------------------------------------------------------------------

Copyright(C) Seiichi Yoshida (comet@aerith.net). All rights reserved.